TimeEST,TemperatureF,Dew PointF,Humidity,Sea Level PressureIn,VisibilityMPH,Wind Direction,Wind SpeedMPH,Gust SpeedMPH,PrecipitationIn,Events,Conditions,WindDirDegrees,DateUTC
12:03 AM,27.7,25.3,91,30.39,10.0,Calm,Calm,-,N/A,,Clear,0,2012-11-15 05:03:00
12:37 AM,27.0,24.6,91,30.38,10.0,Calm,Calm,-,N/A,,Clear,0,2012-11-15 05:37:00
12:54 AM,27.3,25.2,92,30.39,10.0,Calm,Calm,-,N/A,,Clear,0,2012-11-15 05:54:00
1:15 AM,28.2,25.5,90,30.38,10.0,Calm,Calm,-,N/A,,Clear,0,2012-11-15 06:15:00
1:35 AM,28.4,26.1,91,30.37,10.0,Calm,Calm,-,N/A,,Clear,0,2012-11-15 06:35:00
1:54 AM,27.5,25.3,92,30.37,10.0,Calm,Calm,-,N/A,,Clear,0,2012-11-15 06:54:00
2:15 AM,28.4,26.2,92,30.37,10.0,Calm,Calm,-,N/A,,Clear,0,2012-11-15 07:15:00
2:35 AM,29.1,26.1,88,30.37,10.0,Calm,Calm,-,N/A,,Clear,0,2012-11-15 07:35:00
2:55 AM,27.9,25.7,92,30.37,10.0,Calm,Calm,-,N/A,,Clear,0,2012-11-15 07:55:00
3:14 AM,27.9,26.1,93,30.38,7.0,Calm,Calm,-,N/A,,Clear,0,2012-11-15 08:14:00
3:34 AM,26.4,24.4,92,30.38,7.0,Calm,Calm,-,N/A,,Clear,0,2012-11-15 08:34:00
3:55 AM,26.8,25.0,93,30.37,7.0,Calm,Calm,-,N/A,,Clear,0,2012-11-15 08:55:00
4:14 AM,26.8,24.8,92,30.36,7.0,Calm,Calm,-,N/A,,Clear,0,2012-11-15 09:14:00
4:34 AM,26.8,25.0,93,30.36,7.0,Calm,Calm,-,N/A,,Clear,0,2012-11-15 09:34:00
4:55 AM,25.7,24.1,94,30.36,7.0,Calm,Calm,-,N/A,,Clear,0,2012-11-15 09:55:00
5:14 AM,26.6,24.8,93,30.36,7.0,Calm,Calm,-,N/A,,Clear,0,2012-11-15 10:14:00
5:35 AM,27.1,25.5,94,30.36,7.0,Calm,Calm,-,N/A,,Clear,0,2012-11-15 10:35:00
5:55 AM,27.1,25.3,93,30.36,7.0,Calm,Calm,-,N/A,,Clear,0,2012-11-15 10:55:00
6:14 AM,26.8,25.0,93,30.36,7.0,Calm,Calm,-,N/A,,Clear,0,2012-11-15 11:14:00
6:35 AM,26.6,24.8,93,30.36,7.0,Calm,Calm,-,N/A,,Clear,0,2012-11-15 11:35:00
6:55 AM,26.6,24.8,93,30.36,7.0,Calm,Calm,-,N/A,,Clear,0,2012-11-15 11:55:00
7:14 AM,26.6,24.8,93,30.36,7.0,Calm,Calm,-,N/A,,Scattered Clouds,0,2012-11-15 12:14:00
7:35 AM,26.8,25.3,94,30.35,5.0,Calm,Calm,-,N/A,,Mostly Cloudy,0,2012-11-15 12:35:00
7:54 AM,27.1,25.5,94,30.36,5.0,Calm,Calm,-,N/A,,Scattered Clouds,0,2012-11-15 12:54:00
8:14 AM,27.5,25.7,93,30.36,5.0,Calm,Calm,-,N/A,,Clear,0,2012-11-15 13:14:00
8:35 AM,28.4,26.6,93,30.36,5.0,Calm,Calm,-,N/A,,Clear,0,2012-11-15 13:35:00
8:54 AM,30.2,28.0,92,30.36,5.0,Calm,Calm,-,N/A,,Clear,0,2012-11-15 13:54:00
9:14 AM,31.8,28.2,87,30.36,5.0,Calm,Calm,-,N/A,,Clear,0,2012-11-15 14:14:00
9:35 AM,32.4,28.0,84,30.36,5.0,Calm,Calm,-,N/A,,Clear,0,2012-11-15 14:35:00
9:54 AM,33.3,27.5,79,30.36,7.0,SSE,4.6,-,N/A,,Clear,160,2012-11-15 14:54:00
10:15 AM,34.3,27.9,77,30.36,7.0,South,3.5,-,N/A,,Clear,170,2012-11-15 15:15:00
10:35 AM,35.6,27.7,73,30.36,10.0,South,5.8,-,N/A,,Clear,180,2012-11-15 15:35:00
10:54 AM,36.9,27.9,70,30.36,10.0,South,5.8,-,N/A,,Clear,180,2012-11-15 15:54:00
11:15 AM,38.1,28.6,69,30.36,10.0,South,4.6,-,N/A,,Clear,190,2012-11-15 16:15:00
11:34 AM,39.2,28.9,67,30.36,10.0,South,6.9,-,N/A,,Scattered Clouds,170,2012-11-15 16:34:00
11:55 AM,39.6,29.3,67,30.35,10.0,South,8.1,-,N/A,,Clear,180,2012-11-15 16:55:00
12:15 PM,40.5,30.0,66,30.34,10.0,SSW,6.9,-,N/A,,Clear,200,2012-11-15 17:15:00
12:34 PM,41.0,30.2,65,30.33,10.0,South,8.1,-,N/A,,Clear,190,2012-11-15 17:34:00
12:55 PM,41.5,31.1,66,30.33,10.0,SW,6.9,-,N/A,,Clear,230,2012-11-15 17:55:00
1:14 PM,41.9,30.7,65,30.32,10.0,South,5.8,-,N/A,,Clear,190,2012-11-15 18:14:00
1:35 PM,43.2,31.3,63,30.31,10.0,SSW,4.6,-,N/A,,Clear,210,2012-11-15 18:35:00
1:54 PM,43.7,31.5,62,30.31,10.0,SSW,8.1,-,N/A,,Clear,200,2012-11-15 18:54:00
2:14 PM,44.2,30.9,60,30.31,10.0,South,8.1,-,N/A,,Clear,190,2012-11-15 19:14:00
2:35 PM,45.1,31.3,58,30.30,10.0,SSW,6.9,-,N/A,,Clear,200,2012-11-15 19:35:00
2:54 PM,45.1,30.4,56,30.30,10.0,SSW,9.2,16.1,N/A,,Clear,200,2012-11-15 19:54:00
3:14 PM,45.5,30.2,55,30.30,10.0,SSW,8.1,-,N/A,,Clear,210,2012-11-15 20:14:00
3:34 PM,45.5,29.8,54,30.30,10.0,SSW,8.1,-,N/A,,Clear,200,2012-11-15 20:34:00
3:55 PM,45.1,30.4,56,30.29,10.0,South,10.4,-,N/A,,Clear,190,2012-11-15 20:55:00
4:14 PM,44.8,30.4,57,30.30,10.0,SW,6.9,-,N/A,,Clear,220,2012-11-15 21:14:00
4:35 PM,44.4,30.2,57,30.30,10.0,SW,5.8,-,N/A,,Clear,220,2012-11-15 21:35:00
4:54 PM,43.2,30.0,60,30.30,10.0,SSW,5.8,-,N/A,,Clear,210,2012-11-15 21:54:00
5:14 PM,41.2,29.7,64,30.30,10.0,SSW,3.5,-,N/A,,Clear,200,2012-11-15 22:14:00
5:35 PM,37.9,29.1,71,30.30,10.0,SSW,3.5,-,N/A,,Clear,210,2012-11-15 22:35:00
5:54 PM,33.8,28.6,81,30.31,10.0,Calm,Calm,-,N/A,,Clear,0,2012-11-15 22:54:00
6:35 PM,32.4,29.1,88,30.31,7.0,Calm,Calm,-,N/A,,Clear,0,2012-11-15 23:35:00
6:54 PM,31.8,29.3,90,30.31,7.0,Calm,Calm,-,N/A,,Clear,0,2012-11-15 23:54:00
7:14 PM,31.8,29.8,92,30.32,7.0,Calm,Calm,-,N/A,,Clear,0,2012-11-16 00:14:00
7:35 PM,31.1,29.3,93,30.32,5.0,Calm,Calm,-,N/A,,Clear,0,2012-11-16 00:35:00
7:54 PM,30.7,28.9,93,30.32,7.0,Calm,Calm,-,N/A,,Clear,0,2012-11-16 00:54:00
8:14 PM,30.0,28.2,93,30.32,5.0,Calm,Calm,-,N/A,,Clear,0,2012-11-16 01:14:00
8:35 PM,29.5,27.9,94,30.33,5.0,Calm,Calm,-,N/A,,Clear,0,2012-11-16 01:35:00
8:54 PM,29.3,27.7,94,30.33,5.0,Calm,Calm,-,N/A,,Clear,0,2012-11-16 01:54:00
9:14 PM,28.6,27.1,94,30.33,5.0,Calm,Calm,-,N/A,,Clear,0,2012-11-16 02:14:00
9:34 PM,28.4,26.6,93,30.33,5.0,Calm,Calm,-,N/A,,Clear,0,2012-11-16 02:34:00
9:54 PM,27.7,26.4,95,30.33,4.0,Calm,Calm,-,N/A,,Clear,0,2012-11-16 02:54:00
10:15 PM,27.5,26.2,95,30.33,5.0,Calm,Calm,-,N/A,,Clear,0,2012-11-16 03:15:00
10:34 PM,27.9,26.2,94,30.33,5.0,Calm,Calm,-,N/A,,Clear,0,2012-11-16 03:34:00
10:54 PM,27.9,26.4,94,30.33,5.0,Calm,Calm,-,N/A,,Clear,0,2012-11-16 03:54:00
11:15 PM,27.9,26.2,94,30.34,5.0,Calm,Calm,-,N/A,,Clear,0,2012-11-16 04:15:00
11:34 PM,27.5,25.7,93,30.34,5.0,Calm,Calm,-,N/A,,Clear,0,2012-11-16 04:34:00
11:54 PM,27.5,26.1,94,30.34,4.0,Calm,Calm,-,N/A,,Clear,0,2012-11-16 04:54:00